Regional Weather Roundup
Issued by NWS

Home | Current Version | Previous Version | Text Only | Print | Product List | Glossary On
Versions: 1 2 3 4 5 6 7 8 9 10 11 12 13 14 15 16 17 18 19 20 21 22 23 24 25 26 27 28 29 30 31 32 33 34 35 36 37 38 39 40 41 42 43 44 45 46 47 48 49 50
000
ASUS45 KBOU 281007
RWRCO

WEATHER ROUNDUP FOR COLORADO
NATIONAL WEATHER SERVICE DENVER/BOULDER CO
400 AM MDT THU JUL 28 2016

NOTE: "FAIR" INDICATES FEW OR NO CLOUDS BELOW 12000 FEET WITH NO
SIGNIFICANT WEATHER AND/OR OBSTRUCTIONS TO VISIBILITY.

COZ001>005-013-030-031-281100-
...NORTHWEST COLORADO...

CITY           SKY/WX    TMP DP  RH WIND       PRES   REMARKS
CRAIG          FAIR      43  35  73 CALM      30.25R
HAYDEN         FAIR      55  27  33 E13       30.25S
MEEKER         FAIR      53  34  48 E6        30.27R
MOUNT WERNER   NOT AVBL
STEAMBOAT SPGS FAIR      48  30  50 CALM      30.29R
WALDEN         FAIR      39  28  65 SE9       30.37R
$$

COZ006>008-011-281100-
...WEST CENTRAL VALLEYS...

CITY           SKY/WX    TMP DP  RH WIND       PRES   REMARKS
GRAND JUNCTION FAIR      68  32  26 SE9       30.10R
MONTROSE       FAIR      62  38  40 S8        30.21S
EAGLE          FAIR      54  30  40 CALM      30.31S
RIFLE          FAIR      57  39  51 NE5       30.19S
DELTA          NOT AVBL
NUCLA          NOT AVBL
$$

COZ017>023-064>068-281100-
...SOUTHWEST COLORADO...

CITY           SKY/WX    TMP DP  RH WIND       PRES   REMARKS
DURANGO        FAIR      59  34  39 NE8       30.29R
CORTEZ         FAIR      55  38  52 S3        30.20R
PAGOSA SPRINGS FAIR      54  32  43 CALM      30.39R
TELLURIDE      FAIR      56  34  42 E5        30.50S
WOLF CREEK PAS FAIR      52  34  50 SW18      30.74S
$$

COZ009-010-012-014-032>034-037-058>063-281100-
...CENTRAL COLORADO...

CITY           SKY/WX    TMP DP  RH WIND       PRES   REMARKS
ASPEN          FAIR      52  32  46 CALM      30.36R
BUENA VISTA    FAIR      52  29  40 NW7       30.41S
COPPER MTN     FAIR      59   9  13 SW10G17   30.70R
BERTHOUD PASS  FAIR      50  36  57 W15G23    30.70F
COTTONWOOD PAS FAIR      63  28  27 CALM      30.54S
GUNNISON       FAIR      46  34  61 CALM      30.43R
KREMMLING      FAIR      41  36  81 CALM      30.37R
LEADVILLE      FAIR      48  21  34 CALM      30.53F
MONARCH PASS   FAIR      54  30  40 S14G20    30.82S
SALIDA         FAIR      57  37  46 CALM      30.45S
SUNLIGHT       NOT AVBL
WILKERSON PASS FAIR      52  36  54 SW8       30.66F
$$

COZ069>075-281100-
...SAN LUIS VALLEY/SANGRE DE CRISTO MOUNTAINS...

CITY           SKY/WX    TMP DP  RH WIND       PRES   REMARKS
ALAMOSA        FAIR      58  43  57 SE12      30.36S
LA VETA PASS   FAIR      54  39  58 S9        30.55F
SAGUACHE       FAIR      52  36  54 N10       30.41R
$$

COZ035-036-038>040-281100-
...NORTHERN COLORADO FRONT RANGE...

CITY           SKY/WX    TMP DP  RH WIND       PRES   REMARKS
DENVER INTL AP FAIR      64  57  78 W9        30.16S
DMNS CITY PARK   N/A     65  58  76 W2        30.17S
AURORA         PTCLDY    64  56  75 SW5       30.18F
FRONT RANGE AP NOT AVBL
ERIE MUNI ARPT FAIR      61  58  88 NW3       30.15F
BOULDER MUN AP FAIR      64  59  82 N5        30.15F
CENTENNIAL     FAIR      64  54  69 W5        30.20F
BROOMFIELD     FAIR      64  57  77 NW3       30.18F
LONGMONT       NOT AVBL
$$

COZ041-046-047-076>085-087-088-281100-
...PIKES PEAK/PALMER DIVIDE AND SOUTHERN FOOTHILLS...

CITY           SKY/WX    TMP DP  RH WIND       PRES   REMARKS
COLO. SPRINGS  FAIR      61  54  77 NE7       30.24F
A. F. ACADEMY  FAIR      55  50  83 N8        30.25F
SCHRIEVER AFB  NOT AVBL
ELLICOTT       FAIR     N/A N/A N/A SE3       30.22F
FALCON         NOT AVBL
FORT CARSON    FAIR      61  54  77 E3        30.21F
LIMON          FAIR      57  54  89 CALM      30.20F
MONUMENT HILL  FAIR      55  52  88 W7        30.30F
TRINIDAD       NOT AVBL
$$

COZ042>045-048>051-090-091-281100-
...NORTHEAST COLORADO...

CITY           SKY/WX    TMP DP  RH WIND       PRES   REMARKS
GREELEY ARPT   FAIR      61  57  88 N6        30.15S
AKRON          MOCLDY    61  58  90 SE15      30.15F
BURLINGTON     FAIR      62  58  86 NE20      30.19R
WRAY           NOT AVBL
STERLING       NOT AVBL
HOLYOKE        NOT AVBL
FORT MORGAN    NOT AVBL
$$

COZ086-089-092>099-281100-
...SOUTHEAST COLORADO...

CITY           SKY/WX    TMP DP  RH WIND       PRES   REMARKS
PUEBLO         FAIR      68  57  68 N8        30.13S
LA JUNTA       FAIR      67  59  75 E9        30.11F
LAMAR          FAIR      68  61  78 SE13      30.09F
SPRINGFIELD      N/A     62  58  86 SE7       30.15R
$$



USA.gov is the U.S. government's official web portal to all federal, state and local government web resources and services.